[[{"header":{"parameterUnit":"m.s-1","parameterCategory":2,"la1":30.2991,"la2":30.254,"lo1":-89.0895,"lo2":-89.0444,"dy":0.0017,"dx":0.0017,"nx":28,"ny":28,"refTime":"2025-09-06T21:00:00:Z","depth":"0","parameterNumber":2,"parameterNumberName":"U-component_of_CURRENTS"},"data":[0,0,0,0,0,0,0,0,0,0,0,0,0,0,0,0,0,0,0,0,0,0,0,0,0,0,0,0,0,0,0,0,0,0,0,0,0,0,0,0,0,0,0,0,0,0,0,0,0,0,0,0,0,0,0,0,0,0,0.1176,0.1177,0,0.1228,0.1229,0.1229,0.1246,0.1246,0.1246,0.1246,0.1264,0.1264,0.1265,0,0,0,0,0,0,0,0,0,0,0,0,0,0.1034,0.1036,0.1176,0.1177,0.1178,0.1228,0.1229,0.1229,0.1246,0.1246,0.1246,0.1246,0.1264,0.1264,0.1265,0,0,0,0,0,0,0,0,0,0,0,0,0,0.109,0.1037,0.1176,0.1193,0.1196,0.1228,0.1229,0.123,0.1246,0.1246,0.1246,0.1246,0.1263,0.1264,0.1265,0.1273,0,0,0.1268,0.1268,0,0,0,0,0,0,0,0,0.1087,0.1095,0.119,0.1192,0.1195,0.1232,0.1185,0.1243,0.1246,0.1225,0.1246,0.1246,0.1251,0.1253,0.1261,0.1274,0.1274,0.1268,0.1268,0.1269,0.1269,0,0,0,0,0,0,0,0.1083,0.1093,0.1195,0.1191,0.1194,0.1179,0.1187,0.1196,0.1236,0.1227,0.1229,0.1237,0.1252,0.126,0.1262,0.1275,0.1268,0.1268,0.1269,0.1269,0.1306,0.1307,0,0,0,0,0,0,0.1084,0.109,0.1194,0.1197,0.1141,0.1182,0.1191,0.1219,0.1237,0.1241,0.1237,0.1238,0.1259,0.1261,0.1262,0.129,0.1269,0.1269,0.127,0.1306,0.1306,0.1307,0,0,0,0,0,0,0.1081,0.1093,0.1191,0.1144,0.1156,0.1185,0.1216,0.122,0.123,0.1246,0.1248,0.1243,0.1259,0.1261,0.1273,0.129,0.127,0.127,0.1305,0.1306,0.1306,0.1334,0,0,0,0,0,0,0.1077,0.1092,0.1113,0.1145,0.1159,0.1223,0.1216,0.1221,0.1236,0.1237,0.1251,0.1253,0.1259,0.1272,0.1274,0.1291,0.1271,0.1304,0.1305,0.1306,0.1332,0.1335,0.1338,0,0,0,0,0,0.1072,0.1113,0.1114,0.1127,0.1187,0.1224,0.123,0.1247,0.1237,0.1252,0.1253,0.1253,0.1279,0.1273,0.1276,0.1293,0.1304,0.1305,0.1306,0.1331,0.1335,0.1338,0,0,0,0,0,0,0.1079,0.112,0.1122,0.1178,0.1199,0.1228,0.1249,0.1247,0.126,0.1258,0.1258,0.1261,0.128,0.1279,0.1272,0.1305,0.1292,0.1294,0.131,0.1314,0.1316,0.1317,0.1272,0,0,0,0,0,0.1085,0.112,0.115,0.1195,0.1205,0.122,0.1235,0.1244,0.126,0.1265,0.127,0.1275,0.1287,0.1293,0.1305,0.132,0.1405,0.1332,0.1335,0.1338,0.1339,0.1443,0.1456,0.131,0.131,0.131,0,0,0.1105,0.1128,0.1152,0.1196,0.1213,0.1237,0.1229,0.126,0.1274,0.1264,0.1284,0.1287,0.1293,0.1316,0.1324,0.1316,0.1447,0.1339,0.1341,0.1341,0.1446,0.146,0.1473,0.1311,0.1311,0.1311,0,0,0.1151,0.1176,0.1211,0.1225,0.1249,0.1258,0.1264,0.1286,0.1292,0.1308,0.1305,0.131,0.133,0.1336,0.1341,0.1363,0.1459,0.1373,0.1388,0.1489,0.1503,0.1515,0.1751,0.1784,0.1373,0.1373,0.1373,0,0.1172,0.1218,0.1228,0.1252,0.1268,0.1265,0.1294,0.1301,0.1322,0.1332,0.132,0.1351,0.1339,0.1372,0.137,0.137,0.1496,0.1375,0.1496,0.1509,0.1522,0.1759,0.1795,0.1374,0.1374,0.1374,0.1374,0,0.1233,0.1262,0.1284,0.131,0.1324,0.1355,0.1357,0.1369,0.1365,0.1372,0.1401,0.1392,0.1418,0.1407,0.1388,0.1462,0.1556,0.1493,0.1492,0.1539,0.1787,0.1825,0.1376,0.1376,0.1375,0.1375,0,0,0.1314,0.1325,0.1334,0.1344,0.1356,0.1381,0.1395,0.142,0.1455,0.1445,0.1509,0.147,0.1475,0.1479,0.1469,0.152,0.1726,0.1542,0.1547,0.179,0.2086,0.2179,0.2231,0.1696,0.17,0.1702,0.2266,0,0.1362,0.1407,0.14,0.1442,0.1465,0.1453,0.1475,0.1489,0.1508,0.157,0.1549,0.161,0.1505,0.1551,0.1573,0.1696,0.1809,0.1588,0.1992,0.2007,0.209,0.2267,0.2219,0.2715,0.2303,0.2309,0.2314,0,0.1431,0.1446,0.149,0.1506,0.1518,0.1539,0.1587,0.1612,0.1666,0.1691,0.1719,0.1743,0.1827,0.1726,0.1963,0.1844,0.1966,0.2045,0.2068,0.2156,0.2164,0.2578,0.2799,0.2665,0.2372,0.2367,0.2363,0,0.1489,0.1515,0.1549,0.1555,0.1572,0.1593,0.1613,0.1653,0.1714,0.1809,0.1906,0.1958,0.2084,0.2168,0.2302,0.2179,0.2616,0.2475,0.2695,0.2711,0.2746,0.2754,0.2879,0.2658,0.2656,0.2655,0.2653,0,0.1553,0.1583,0.1578,0.1601,0.1663,0.165,0.1742,0.1768,0.1863,0.1988,0.1992,0.2144,0.2193,0.2416,0.2465,0.2765,0.2776,0.2776,0.2855,0.2766,0.2769,0.2708,0.2582,0.2676,0.2671,0.2667,0.2663,0,0.1622,0.1616,0.1666,0.1682,0.1696,0.1751,0.1837,0.1921,0.1994,0.2184,0.2247,0.2404,0.2701,0.2811,0.3064,0.3062,0.3209,0.336,0.3325,0.3383,0.3368,0.3245,0.3394,0.3295,0.3721,0.3727,0.3731,0,0.1662,0.1693,0.1736,0.1784,0.1799,0.187,0.194,0.1995,0.2097,0.2349,0.2473,0.2798,0.2984,0.3441,0.3544,0.3794,0.3523,0.3882,0.355,0.3437,0.3359,0.3123,0.3005,0.3692,0.3696,0.3699,0.3702,0,0.1753,0.177,0.1811,0.1888,0.1966,0.2039,0.2133,0.2216,0.2332,0.2483,0.2718,0.2888,0.3349,0.3558,0.3901,0.4002,0.3674,0.3956,0.3816,0.3349,0.3125,0.3044,0.334,0.373,0.3727,0.3725,0.3724,0.3723,0.184,0.1888,0.1933,0.2007,0.2085,0.2151,0.2184,0.2298,0.2427,0.26,0.2825,0.3052,0.3445,0.3884,0.3994,0.4125,0.393,0.3976,0.3871,0.3671,0.3419,0.3845,0.4282,0.4282,0.4282,0.4282,0.4283,0,0.193,0.1966,0.2045,0.2099,0.2146,0.2174,0.2271,0.2278,0.237,0.262,0.2781,0.3196,0.3502,0.3794,0.4063,0.3984,0.377,0.39,0.3492,0.3397,0.3817,0.3646,0.3986,0.3987,0.3987,0.3987,0.3987,0.3987,0.1993,0.2056,0.2068,0.2118,0.214,0.2143,0.216,0.2191,0.2306,0.2511,0.2725,0.2965,0.3375,0.3768,0.3842,0.3788,0.3407,0.338,0.3254,0.3462,0.3455,0.3448,0.3255,0.3509,0.3508,0.2721,0.2715,0.2711]},{"header":{"parameterUnit":"m.s-1","parameterCategory":2,"la1":30.2991,"la2":30.254,"lo1":-89.0895,"lo2":-89.0444,"dy":0.0017,"dx":0.0017,"nx":28,"ny":28,"refTime":"2025-09-06T21:00:00:Z","depth":"0","parameterNumber":3,"parameterNumberName":"V-component_of_CURRENTS"},"data":[0,0,0,0,0,0,0,0,0,0,0,0,0,0,0,0,0,0,0,0,0,0,0,0,0,0,0,0,0,0,0,0,0,0,0,0,0,0,0,0,0,0,0,0,0,0,0,0,0,0,0,0,0,0,0,0,0,0,0.0028,0.0028,0,0.0037,0.0037,0.0037,0.0023,0.0023,0.0022,0.0022,0.0006,0.0006,0.0006,0,0,0,0,0,0,0,0,0,0,0,0,0,-0.0052,-0.005,0.0028,0.0028,0.0029,0.0037,0.0037,0.0037,0.0023,0.0023,0.0022,0.0022,0.0006,0.0006,0.0006,0,0,0,0,0,0,0,0,0,0,0,0,0,-0.0028,-0.005,0.0028,0.0023,0.0023,0.0037,0.0037,0.0037,0.0023,0.0023,0.0022,0.0021,0.0006,0.0006,0.0006,0.0017,0,0,0.0005,0.0005,0,0,0,0,0,0,0,0,-0.003,-0.0026,0.0024,0.0024,0.0024,0.0029,0.0003,0.003,0.0023,0.0022,0.0022,0.0021,0.0013,0.0012,0.0014,0.0016,0.0015,0.0005,0.0005,0.0005,0.0005,0,0,0,0,0,0,0,-0.0031,-0.0026,0.0031,0.0024,0.0024,0.0003,0.0007,0.0008,0.0019,0.0022,0.0021,0.0024,0.0012,0.0014,0.0013,0.0015,0.0005,0.0005,0.0005,0.0005,-0.006,-0.0062,0,0,0,0,0,0,-0.0026,-0.0027,0.003,0.0031,-0.0004,0.0006,0.0009,0.0027,0.002,0.0018,0.0025,0.0024,0.0014,0.0013,0.0012,-0.0036,0.0005,0.0005,0.0005,-0.0059,-0.0061,-0.0063,0,0,0,0,0,0,-0.0028,-0.0021,0.003,0.0002,0.0007,0.0008,0.0028,0.0028,0.0025,0.0022,0.002,0.0023,0.0014,0.0013,-0.0007,-0.0035,0.0005,0.0005,-0.0057,-0.0059,-0.0062,-0.0094,0,0,0,0,0,0,-0.003,-0.0021,-0.0008,0.0003,0.0009,0.0032,0.0029,0.0028,0.0029,0.0027,0.002,0.0018,0.0013,-0.0007,-0.0007,-0.0034,0.0005,-0.0055,-0.0058,-0.0061,-0.0091,-0.0097,-0.0103,0,0,0,0,0,-0.0033,-0.0003,-0.0007,-0.0,0.0028,0.0032,0.0033,0.003,0.0029,0.0026,0.001,0.0018,-0.0028,-0.0008,-0.0008,-0.0035,-0.0053,-0.0057,-0.0061,-0.0088,-0.0096,-0.0103,0,0,0,0,0,0,-0.0023,-0.0001,-0.0006,0.0031,0.0024,0.003,0.0036,0.0031,0.0019,0.0017,0.0009,0.0005,-0.0028,-0.0026,-0.0004,-0.0068,-0.0044,-0.0048,-0.0065,-0.0072,-0.0078,-0.008,0.0005,0,0,0,0,0,-0.0017,0.0007,0.0011,0.0037,0.0036,0.0033,0.0035,0.003,0.0024,0.0019,0.0007,-0.0013,-0.0042,-0.0051,-0.0069,-0.009,-0.0059,-0.0113,-0.0119,-0.0124,-0.0128,-0.0119,-0.0123,-0.0075,-0.0075,-0.0075,0,0,-0.0007,0.0009,0.0021,0.0038,0.0037,0.0028,0.0032,0.0037,0.0016,0.0019,-0.001,-0.0028,-0.0053,-0.009,-0.0104,-0.0091,-0.0115,-0.0129,-0.0133,-0.0134,-0.0123,-0.0127,-0.0131,-0.0078,-0.0077,-0.0077,0,0,0.0014,0.0037,0.0051,0.0044,0.0043,0.0035,0.0033,0.0028,0.0012,-0.0013,-0.0033,-0.0071,-0.0092,-0.0131,-0.015,-0.0198,-0.0148,-0.0203,-0.0231,-0.0222,-0.0225,-0.0228,-0.0156,-0.0152,-0.0205,-0.0205,-0.0205,0,0.002,0.0042,0.0052,0.0052,0.0045,0.0034,0.0026,0.0007,-0.0011,-0.0026,-0.0029,-0.0089,-0.012,-0.0174,-0.0211,-0.0212,-0.0169,-0.0198,-0.0227,-0.0229,-0.0231,-0.0158,-0.0153,-0.0207,-0.0207,-0.0207,-0.0207,0,0.0036,0.0047,0.0055,0.0045,0.0035,0.0034,0.0004,-0.0017,-0.0036,-0.0053,-0.01,-0.0141,-0.0168,-0.0205,-0.023,-0.0273,-0.0222,-0.0233,-0.0201,-0.0238,-0.0158,-0.0152,-0.021,-0.021,-0.0209,-0.0208,0,0,0.0069,0.0066,0.0066,0.0063,0.0033,0.0036,-0.0014,-0.0048,-0.0042,-0.0101,-0.0091,-0.0212,-0.0208,-0.0233,-0.0263,-0.029,-0.0279,-0.0274,-0.0273,-0.0188,-0.0199,-0.0128,-0.0113,-0.0285,-0.0285,-0.0285,-0.0122,0,0.0072,0.0081,0.0065,0.0055,0.0057,0.0019,-0.0009,-0.0044,-0.0059,-0.0048,-0.0122,-0.0111,-0.0223,-0.0199,-0.0266,-0.024,-0.0272,-0.0319,-0.019,-0.0185,-0.0107,-0.0109,-0.0118,0.0028,-0.0116,-0.0115,-0.0115,0,0.0088,0.0094,0.0091,0.0084,0.0081,0.0067,0.005,0.0031,0.0014,0.0016,-0.0021,-0.0025,-0.007,-0.0139,-0.0176,-0.0187,-0.022,-0.023,-0.0223,-0.0145,-0.0105,0.003,0.0044,-0.0225,-0.0105,-0.0106,-0.0107,0,0.0127,0.0114,0.0118,0.0111,0.0094,0.0082,0.0074,0.0053,0.0099,0.01,0.0191,0.0089,0.0167,0.0048,0.001,-0.0064,0.0022,-0.0066,-0.0046,-0.0037,-0.0017,-0.0006,-0.0241,-0.013,-0.013,-0.0131,-0.0131,0,0.0152,0.0162,0.0145,0.0154,0.0186,0.0144,0.0202,0.018,0.0238,0.0369,0.0261,0.0394,0.0221,0.0254,0.0107,0.0105,0.0106,-0.0038,-0.0002,-0.0024,-0.0017,-0.0226,-0.0363,-0.0124,-0.0126,-0.0127,-0.0128,0,0.022,0.0194,0.0224,0.0211,0.0216,0.0255,0.0334,0.0419,0.0436,0.0627,0.0667,0.0696,0.0753,0.0598,0.0515,0.0333,0.015,0.0237,0.0259,0.029,-0.0002,-0.0137,-0.0211,-0.0309,0.0268,0.0271,0.0273,0,0.0271,0.0284,0.0302,0.0361,0.0368,0.0427,0.0512,0.0525,0.0656,0.0848,0.0995,0.1095,0.1213,0.1123,0.0826,0.0626,0.0336,0.0447,0.0237,-0.0012,-0.0136,-0.0223,-0.0309,0.0276,0.0278,0.028,0.0281,0,0.0392,0.0388,0.0434,0.0539,0.0628,0.0732,0.0852,0.0979,0.1077,0.1235,0.1493,0.1601,0.1544,0.1373,0.1083,0.0871,0.0266,0.0475,0.0184,-0.0178,-0.0254,-0.0329,0.0203,0.0296,0.0295,0.0294,0.0293,0.0292,0.0527,0.0597,0.0664,0.0769,0.0877,0.1043,0.1157,0.1324,0.1537,0.1789,0.1871,0.2053,0.1763,0.1377,0.1068,0.0429,0.0417,0.0155,0.0019,-0.0041,-0.0189,0.0412,0.0553,0.0553,0.0553,0.0553,0.0553,0,0.0713,0.0787,0.0902,0.1035,0.1179,0.1179,0.1404,0.1532,0.1795,0.2036,0.2223,0.2215,0.1779,0.1269,0.0471,0.0008,-0.0209,-0.0264,-0.0485,-0.0551,-0.0048,-0.0112,-0.007,-0.007,-0.007,-0.0069,-0.0069,-0.0069,0.0842,0.0991,0.1032,0.1286,0.1373,0.1563,0.1687,0.1866,0.2037,0.2308,0.2428,0.2528,0.2119,0.0684,-0.0354,-0.0571,-0.0949,-0.0939,-0.1118,-0.0911,-0.0887,-0.0865,-0.0966,-0.1103,-0.1105,-0.16,-0.1606,-0.161]}],[{"header":{"parameterUnit":"m.s-1","parameterCategory":2,"la1":30.2991,"la2":30.254,"lo1":-89.0895,"lo2":-89.0444,"dy":0.0017,"dx":0.0017,"nx":28,"ny":28,"refTime":"2025-09-06T21:00:00:Z","depth":"2","parameterNumber":2,"parameterNumberName":"U-component_of_CURRENTS"},"data":[0,0,0,0,0,0,0,0,0,0,0,0,0,0,0,0,0,0,0,0,0,0,0,0,0,0,0,0,0,0,0,0,0,0,0,0,0,0,0,0,0,0,0,0,0,0,0,0,0,0,0,0,0,0,0,0,0,0,0.1632,0.1632,0,0.1646,0.1646,0.1646,0.1626,0.1625,0.1624,0.1624,0.1601,0.1601,0.1601,0,0,0,0,0,0,0,0,0,0,0,0,0,0.1578,0.1579,0.1632,0.1632,0.1632,0.1646,0.1646,0.1646,0.1626,0.1625,0.1624,0.1623,0.1601,0.1601,0.1601,0,0,0,0,0,0,0,0,0,0,0,0,0,0.1597,0.158,0.1632,0.1625,0.1624,0.1646,0.1646,0.1646,0.1626,0.1625,0.1624,0.1623,0.1601,0.1601,0.1601,0.1619,0,0,0.1601,0.1601,0,0,0,0,0,0,0,0,0.1596,0.1598,0.1626,0.1625,0.1625,0.1634,0.1619,0.1636,0.1626,0.1624,0.1624,0.1623,0.1611,0.161,0.1613,0.1618,0.1617,0.1601,0.1601,0.1601,0.1601,0,0,0,0,0,0,0,0.1594,0.1598,0.1636,0.1626,0.1626,0.1618,0.162,0.1622,0.162,0.1624,0.1623,0.1627,0.161,0.1613,0.1612,0.1616,0.1601,0.1601,0.1601,0.1601,0.1642,0.1643,0,0,0,0,0,0,0.1597,0.1597,0.1636,0.1637,0.1609,0.162,0.1622,0.1631,0.1621,0.1619,0.1628,0.1626,0.1614,0.1612,0.1611,0.165,0.1601,0.1601,0.1601,0.1641,0.1642,0.1643,0,0,0,0,0,0,0.1596,0.1601,0.1635,0.1618,0.1622,0.1622,0.1633,0.1632,0.1633,0.1625,0.1622,0.163,0.1613,0.1611,0.1619,0.1648,0.1601,0.1601,0.164,0.1641,0.1643,0.1716,0,0,0,0,0,0,0.1595,0.1601,0.1606,0.1618,0.1623,0.1657,0.1634,0.1633,0.1638,0.1636,0.1626,0.1623,0.1612,0.1619,0.1619,0.1647,0.1601,0.1638,0.164,0.1642,0.1712,0.172,0.1727,0,0,0,0,0,0.1593,0.161,0.1606,0.161,0.1631,0.1658,0.166,0.1656,0.1639,0.1651,0.164,0.1623,0.1632,0.162,0.1619,0.1649,0.1637,0.164,0.1642,0.1709,0.1719,0.1727,0,0,0,0,0,0,0.1589,0.161,0.1606,0.1627,0.1644,0.1655,0.1666,0.1659,0.1661,0.1655,0.1637,0.1634,0.1653,0.1639,0.1626,0.1666,0.1632,0.1635,0.1684,0.1692,0.1699,0.1705,0.1601,0,0,0,0,0,0.1592,0.161,0.1627,0.1644,0.1654,0.1658,0.1666,0.1667,0.1671,0.167,0.1663,0.1657,0.1665,0.1668,0.1669,0.1691,0.1705,0.1709,0.1716,0.1722,0.1727,0.1748,0.1758,0.1652,0.1652,0.1652,0,0,0.1591,0.1609,0.1615,0.1645,0.1655,0.1683,0.1661,0.1682,0.1705,0.1669,0.169,0.1682,0.1676,0.1702,0.1709,0.1693,0.1773,0.1726,0.1731,0.1732,0.1752,0.1762,0.1771,0.1653,0.1653,0.1653,0,0,0.1612,0.1621,0.1644,0.1665,0.169,0.1701,0.1709,0.1724,0.1729,0.1751,0.1733,0.1744,0.1747,0.1758,0.1762,0.181,0.1809,0.1806,0.185,0.1871,0.188,0.1888,0.1978,0.1993,0.1811,0.1811,0.1811,0,0.1609,0.1643,0.1655,0.1688,0.1708,0.1712,0.1743,0.176,0.1774,0.1783,0.1765,0.1782,0.178,0.1817,0.1836,0.1829,0.1854,0.1819,0.1882,0.1889,0.1896,0.1986,0.2002,0.1815,0.1814,0.1814,0.1813,0,0.1649,0.1676,0.1696,0.1739,0.1765,0.1794,0.1822,0.1842,0.1843,0.1852,0.1877,0.1874,0.1883,0.189,0.188,0.1929,0.1941,0.1889,0.1861,0.1911,0.2003,0.2019,0.182,0.1819,0.1818,0.1817,0,0,0.1644,0.1708,0.1715,0.1739,0.1793,0.1816,0.1867,0.1907,0.1932,0.1942,0.1973,0.1993,0.1978,0.1981,0.1971,0.1991,0.2088,0.1963,0.1963,0.2059,0.2187,0.2176,0.2191,0.2035,0.2036,0.2037,0.2255,0,0.1668,0.1728,0.1761,0.1819,0.185,0.1882,0.1925,0.1962,0.1986,0.2019,0.2024,0.2048,0.2018,0.2025,0.2044,0.2071,0.212,0.2038,0.2119,0.2123,0.2109,0.2204,0.1993,0.2163,0.2269,0.2272,0.2273,0,0.1697,0.1734,0.1788,0.1852,0.1868,0.1905,0.1968,0.2008,0.2062,0.2079,0.2103,0.2107,0.2167,0.211,0.2205,0.215,0.2181,0.2198,0.2205,0.2171,0.2137,0.2117,0.2186,0.2298,0.2296,0.2294,0.2293,0,0.1681,0.1754,0.1793,0.1817,0.189,0.1918,0.1956,0.2016,0.207,0.2117,0.2172,0.2199,0.2262,0.2267,0.2343,0.2266,0.2458,0.2352,0.2385,0.2388,0.2213,0.2196,0.2415,0.2415,0.2414,0.2414,0.2413,0,0.1694,0.1727,0.1784,0.1806,0.1856,0.1905,0.1967,0.2007,0.2094,0.2166,0.2197,0.2282,0.2299,0.2412,0.2406,0.2494,0.2524,0.243,0.2438,0.224,0.2223,0.2314,0.2299,0.2422,0.242,0.2419,0.2417,0,0.1673,0.1712,0.1759,0.1826,0.1849,0.188,0.1988,0.2038,0.2124,0.2228,0.2258,0.2402,0.2544,0.261,0.2688,0.2623,0.2665,0.2687,0.2502,0.2481,0.2563,0.255,0.2709,0.271,0.2711,0.2712,0.2713,0,0.1667,0.1686,0.1758,0.1791,0.1823,0.1883,0.1931,0.2027,0.2097,0.23,0.2358,0.2563,0.266,0.2836,0.2786,0.2822,0.283,0.2622,0.24,0.26,0.2592,0.2576,0.2562,0.2235,0.2232,0.2229,0.2227,0,0.1648,0.1671,0.1708,0.1773,0.1823,0.189,0.1969,0.2037,0.216,0.2279,0.2466,0.2567,0.2744,0.2695,0.2759,0.2709,0.2577,0.2567,0.2841,0.218,0.2166,0.2153,0.2152,0.2204,0.2206,0.2208,0.2209,0.221,0.1624,0.1643,0.1692,0.175,0.1815,0.188,0.1908,0.2013,0.2126,0.2231,0.2398,0.2457,0.2515,0.2485,0.2455,0.2411,0.2533,0.2349,0.2351,0.2358,0.225,0.2236,0.2274,0.2276,0.2279,0.2281,0.2282,0,0.1581,0.1617,0.1672,0.1731,0.1773,0.1833,0.1921,0.1925,0.2011,0.21,0.219,0.2042,0.2054,0.2148,0.2042,0.2019,0.1919,0.1933,0.1786,0.1813,0.1837,0.1694,0.1575,0.1573,0.157,0.1568,0,0,0.1559,0.1583,0.1611,0.1659,0.1714,0.1732,0.1762,0.1784,0.1825,0.179,0.1778,0.1881,0.2044,0.1763,0.1752,0.1664,0.1703,0.1585,0.2158,0.2011,0.203,0.2093,0.191,0,0,0,0,0]},{"header":{"parameterUnit":"m.s-1","parameterCategory":2,"la1":30.2991,"la2":30.254,"lo1":-89.0895,"lo2":-89.0444,"dy":0.0017,"dx":0.0017,"nx":28,"ny":28,"refTime":"2025-09-06T21:00:00:Z","depth":"2","parameterNumber":3,"parameterNumberName":"V-component_of_CURRENTS"},"data":[0,0,0,0,0,0,0,0,0,0,0,0,0,0,0,0,0,0,0,0,0,0,0,0,0,0,0,0,0,0,0,0,0,0,0,0,0,0,0,0,0,0,0,0,0,0,0,0,0,0,0,0,0,0,0,0,0,0,-0.0414,-0.0414,0,-0.0481,-0.0482,-0.0483,-0.0516,-0.0516,-0.0516,-0.0516,-0.0567,-0.0569,-0.057,0,0,0,0,0,0,0,0,0,0,0,0,0,-0.0361,-0.0361,-0.0414,-0.0414,-0.0415,-0.0481,-0.0482,-0.0483,-0.0516,-0.0516,-0.0516,-0.0516,-0.0567,-0.0569,-0.057,0,0,0,0,0,0,0,0,0,0,0,0,0,-0.0401,-0.0361,-0.0413,-0.044,-0.0443,-0.0481,-0.0482,-0.0483,-0.0516,-0.0516,-0.0516,-0.0516,-0.0566,-0.0568,-0.0571,-0.0584,0,0,-0.0577,-0.0578,0,0,0,0,0,0,0,0,-0.0399,-0.0403,-0.0435,-0.0438,-0.0441,-0.049,-0.0482,-0.0516,-0.0516,-0.0489,-0.0516,-0.0516,-0.054,-0.0544,-0.0558,-0.0586,-0.0588,-0.0577,-0.0578,-0.0579,-0.058,0,0,0,0,0,0,0,-0.0396,-0.0401,-0.0441,-0.0436,-0.044,-0.0464,-0.0469,-0.0489,-0.0513,-0.0491,-0.0494,-0.0501,-0.0542,-0.0555,-0.0559,-0.0589,-0.0577,-0.0579,-0.058,-0.0581,-0.0614,-0.0614,0,0,0,0,0,0,-0.0385,-0.0398,-0.0438,-0.0443,-0.0419,-0.0465,-0.0471,-0.0475,-0.0514,-0.052,-0.0501,-0.0502,-0.0552,-0.0556,-0.0561,-0.0561,-0.0579,-0.0581,-0.0582,-0.0614,-0.0614,-0.0613,0,0,0,0,0,0,-0.0383,-0.0388,-0.0436,-0.0422,-0.043,-0.0465,-0.047,-0.0476,-0.0484,-0.0521,-0.0527,-0.0501,-0.0552,-0.0558,-0.0573,-0.0564,-0.0582,-0.0584,-0.0615,-0.0614,-0.0614,-0.0572,0,0,0,0,0,0,-0.0381,-0.0387,-0.0383,-0.0421,-0.043,-0.0446,-0.047,-0.0477,-0.0489,-0.0491,-0.0524,-0.0529,-0.0553,-0.057,-0.0575,-0.0567,-0.0586,-0.0615,-0.0614,-0.0614,-0.0574,-0.057,-0.0567,0,0,0,0,0,-0.0379,-0.0374,-0.0382,-0.0387,-0.0424,-0.0445,-0.0452,-0.0478,-0.0489,-0.0487,-0.0513,-0.0528,-0.0569,-0.0571,-0.0578,-0.057,-0.0616,-0.0615,-0.0614,-0.0576,-0.0571,-0.0567,0,0,0,0,0,0,-0.0347,-0.0378,-0.0388,-0.0391,-0.041,-0.0451,-0.0453,-0.0472,-0.0492,-0.0494,-0.0527,-0.0534,-0.0544,-0.0562,-0.0563,-0.0577,-0.0593,-0.0593,-0.0562,-0.0558,-0.0554,-0.0545,-0.0587,0,0,0,0,0,-0.0338,-0.0342,-0.0373,-0.0373,-0.0382,-0.0415,-0.0427,-0.0444,-0.047,-0.0479,-0.0501,-0.0525,-0.0547,-0.0555,-0.0576,-0.0584,-0.0605,-0.0582,-0.0578,-0.0575,-0.0571,-0.0611,-0.0611,-0.0611,-0.0611,-0.0611,0,0,-0.0326,-0.0343,-0.0344,-0.0367,-0.0385,-0.0387,-0.0422,-0.0434,-0.0434,-0.048,-0.0484,-0.0514,-0.0547,-0.0558,-0.0563,-0.057,-0.0581,-0.0574,-0.0571,-0.0569,-0.061,-0.061,-0.0611,-0.061,-0.061,-0.061,0,0,-0.0298,-0.0316,-0.0307,-0.032,-0.0342,-0.0364,-0.0363,-0.0395,-0.0408,-0.042,-0.0454,-0.0478,-0.0504,-0.053,-0.0546,-0.0535,-0.0563,-0.0538,-0.0513,-0.0551,-0.0552,-0.0552,-0.0559,-0.056,-0.0535,-0.0535,-0.0535,0,-0.028,-0.0274,-0.0307,-0.03,-0.0305,-0.0347,-0.0335,-0.0356,-0.0387,-0.0397,-0.041,-0.0464,-0.0491,-0.0515,-0.0513,-0.0527,-0.0546,-0.0526,-0.0547,-0.0548,-0.055,-0.0557,-0.0559,-0.0533,-0.0533,-0.0533,-0.0533,0,-0.0246,-0.024,-0.0235,-0.024,-0.0249,-0.0247,-0.0278,-0.0288,-0.031,-0.0336,-0.0363,-0.0411,-0.0445,-0.0456,-0.0483,-0.0505,-0.0512,-0.054,-0.0558,-0.0548,-0.0555,-0.0558,-0.053,-0.0531,-0.0531,-0.0532,0,0,-0.0205,-0.0209,-0.0205,-0.0194,-0.0216,-0.0219,-0.0222,-0.024,-0.0242,-0.0283,-0.0289,-0.0343,-0.0382,-0.0403,-0.0445,-0.0477,-0.05,-0.051,-0.0513,-0.0514,-0.0565,-0.0566,-0.057,-0.0539,-0.054,-0.054,-0.0558,0,-0.0165,-0.0132,-0.0151,-0.0121,-0.0107,-0.0145,-0.0143,-0.0168,-0.0197,-0.0214,-0.0278,-0.0302,-0.0358,-0.0375,-0.0421,-0.0478,-0.0511,-0.0491,-0.0576,-0.0577,-0.058,-0.0575,-0.054,-0.0553,-0.0562,-0.0562,-0.0563,0,-0.0124,-0.0106,-0.0068,-0.0059,-0.0057,-0.0051,-0.006,-0.0067,-0.0112,-0.0136,-0.0187,-0.0236,-0.029,-0.034,-0.0441,-0.0428,-0.0494,-0.0541,-0.0543,-0.0563,-0.0586,-0.0569,-0.056,-0.0569,-0.0568,-0.0568,-0.0567,0,-0.0078,-0.0051,-0.0016,-0.0013,-0.0011,-0.0005,-0.001,-0.0043,-0.0035,-0.009,-0.0082,-0.0178,-0.0196,-0.031,-0.0408,-0.0431,-0.0508,-0.0553,-0.0614,-0.0613,-0.0608,-0.0606,-0.0631,-0.0631,-0.0631,-0.0631,-0.0631,0,-0.0033,-0.0006,0.0009,0.0026,0.0066,0.0043,0.0069,0.0045,0.0034,0.0061,-0.004,-0.0024,-0.019,-0.0253,-0.0377,-0.0489,-0.0489,-0.0604,-0.0624,-0.059,-0.0586,-0.0626,-0.0625,-0.0631,-0.0631,-0.0631,-0.0631,0,0.0002,0.0013,0.0054,0.0076,0.0087,0.0109,0.0136,0.0157,0.0136,0.0172,0.0166,0.0103,0.0021,-0.0135,-0.029,-0.0419,-0.0546,-0.0588,-0.0519,-0.0532,-0.0634,-0.0631,-0.0669,-0.067,-0.067,-0.067,-0.067,0,0.002,0.0048,0.0094,0.0129,0.0139,0.0175,0.0205,0.02,0.0239,0.0265,0.0302,0.0243,0.0215,-0.0007,-0.0241,-0.0456,-0.0501,-0.0572,-0.0626,-0.0625,-0.0641,-0.0637,-0.0634,-0.0591,-0.059,-0.059,-0.059,0,0.0055,0.0071,0.0106,0.0182,0.0226,0.0285,0.0336,0.039,0.0405,0.0462,0.0534,0.0519,0.0306,0.0106,-0.0202,-0.0357,-0.0544,-0.0572,-0.059,-0.059,-0.0554,-0.0569,-0.0567,-0.0586,-0.0587,-0.0587,-0.0587,-0.0587,0.0076,0.0112,0.0166,0.0236,0.0302,0.0395,0.0464,0.0545,0.0644,0.0732,0.07,0.0692,0.0426,0.0052,-0.0199,-0.0477,-0.0504,-0.0616,-0.0616,-0.0616,-0.0607,-0.0575,-0.0607,-0.0607,-0.0608,-0.0608,-0.0608,0,0.0103,0.0152,0.0222,0.0312,0.04,0.0432,0.0557,0.0646,0.08,0.0852,0.0903,0.0677,0.0436,0.0151,-0.025,-0.0514,-0.0541,-0.0589,-0.0564,-0.0566,-0.0569,-0.0557,-0.0544,-0.0544,-0.0544,-0.0544,0,0,0.0117,0.0187,0.023,0.0377,0.0461,0.0604,0.0694,0.0839,0.0921,0.0992,0.0985,0.0881,0.053,0.0258,-0.009,-0.0301,-0.0374,-0.0349,-0.038,-0.0313,-0.0311,-0.057,-0.0553,0,0,0,0,0]}],[{"header":{"parameterUnit":"m.s-1","parameterCategory":2,"la1":30.2991,"la2":30.254,"lo1":-89.0895,"lo2":-89.0444,"dy":0.0017,"dx":0.0017,"nx":28,"ny":28,"refTime":"2025-09-06T21:00:00:Z","depth":"4","parameterNumber":2,"parameterNumberName":"U-component_of_CURRENTS"},"data":[0,0,0,0,0,0,0,0,0,0,0,0,0,0,0,0,0,0,0,0,0,0,0,0,0,0,0,0,0,0,0,0,0,0,0,0,0,0,0,0,0,0,0,0,0,0,0,0,0,0,0,0,0,0,0,0,0,0,0.0921,0.0922,0,0.0963,0.0963,0.0964,0.0999,0.1,0.1,0.1001,0.1031,0.1032,0.1032,0,0,0,0,0,0,0,0,0,0,0,0,0,0.0861,0.0862,0.0921,0.0922,0.0923,0.0963,0.0963,0.0964,0.0999,0.1,0.1,0.1001,0.1031,0.1032,0.1032,0,0,0,0,0,0,0,0,0,0,0,0,0,0.0892,0.0862,0.0921,0.0946,0.0949,0.0963,0.0963,0.0964,0.0999,0.1,0.1001,0.1001,0.1031,0.1032,0.1032,0.102,0,0,0.1034,0.1034,0,0,0,0,0,0,0,0,0.089,0.0894,0.0942,0.0944,0.0947,0.0978,0.0953,0.0982,0.0999,0.0979,0.1001,0.1002,0.1013,0.1015,0.1019,0.1021,0.1022,0.1034,0.1034,0.1034,0.1034,0,0,0,0,0,0,0,0.0888,0.0893,0.0936,0.0942,0.0946,0.0951,0.0957,0.0959,0.099,0.098,0.0983,0.099,0.1014,0.1019,0.102,0.1023,0.1034,0.1034,0.1034,0.1035,0.1101,0.1103,0,0,0,0,0,0,0.0886,0.0891,0.0935,0.0938,0.0922,0.0952,0.0958,0.0966,0.099,0.0995,0.0989,0.0991,0.1017,0.1019,0.1021,0.1079,0.1034,0.1035,0.1035,0.11,0.1102,0.1103,0,0,0,0,0,0,0.0884,0.0889,0.0933,0.0916,0.0922,0.0952,0.0961,0.0967,0.0996,0.0997,0.1001,0.1016,0.1018,0.1021,0.1051,0.1078,0.1035,0.1035,0.1098,0.1101,0.1103,0.115,0,0,0,0,0,0,0.0882,0.0888,0.0903,0.0916,0.0923,0.096,0.0961,0.0967,0.0997,0.1001,0.102,0.1023,0.1019,0.1051,0.1052,0.1078,0.1036,0.1096,0.1099,0.1102,0.1146,0.1153,0.1159,0,0,0,0,0,0.088,0.0893,0.0903,0.0909,0.0939,0.0961,0.0965,0.0987,0.0998,0.1015,0.1033,0.1023,0.1069,0.1052,0.1053,0.108,0.1095,0.1098,0.1102,0.1143,0.1152,0.1159,0,0,0,0,0,0,0.0873,0.0898,0.091,0.0931,0.0953,0.0968,0.0987,0.1,0.1027,0.1037,0.1038,0.1042,0.1082,0.1074,0.1055,0.1109,0.1082,0.1086,0.1114,0.1121,0.1128,0.1133,0.1036,0,0,0,0,0,0.0877,0.0898,0.092,0.0939,0.0953,0.0974,0.099,0.1006,0.1026,0.104,0.1054,0.1072,0.1091,0.1102,0.1116,0.1138,0.1143,0.1159,0.1166,0.1171,0.1178,0.1224,0.1235,0.1114,0.1114,0.1114,0,0,0.0881,0.0897,0.091,0.094,0.096,0.0979,0.0986,0.1017,0.1039,0.1037,0.1079,0.1097,0.1104,0.1138,0.1154,0.1137,0.1205,0.1175,0.118,0.1184,0.1228,0.124,0.1251,0.1117,0.1116,0.1116,0,0,0.0889,0.0914,0.0933,0.0952,0.0986,0.0999,0.1014,0.1044,0.1069,0.1104,0.1115,0.1151,0.1174,0.1189,0.1197,0.1246,0.1242,0.1256,0.1288,0.1333,0.1343,0.1352,0.136,0.137,0.1254,0.1255,0.1255,0,0.0892,0.0917,0.0942,0.0961,0.0979,0.101,0.1031,0.1056,0.1095,0.1116,0.1127,0.1192,0.1198,0.1241,0.1263,0.126,0.1278,0.1255,0.1341,0.135,0.1359,0.1365,0.1375,0.1257,0.1257,0.1257,0.1256,0,0.0908,0.0934,0.0948,0.0982,0.1005,0.1031,0.1064,0.1097,0.113,0.1154,0.122,0.1247,0.1289,0.1298,0.1295,0.1361,0.135,0.1347,0.132,0.1374,0.1377,0.1386,0.1261,0.126,0.1259,0.1259,0,0,0.0893,0.0949,0.0955,0.0973,0.102,0.1035,0.1079,0.1122,0.1157,0.1211,0.1263,0.1312,0.1348,0.1361,0.1378,0.1412,0.1479,0.1412,0.1413,0.1415,0.1566,0.1478,0.1479,0.1503,0.1505,0.1507,0.1538,0,0.09,0.0932,0.0964,0.0999,0.1016,0.1059,0.1098,0.1141,0.1187,0.1246,0.1297,0.136,0.1368,0.1409,0.145,0.148,0.151,0.147,0.1516,0.1516,0.1429,0.1489,0.1514,0.1545,0.1547,0.1548,0.1549,0,0.0899,0.0921,0.0955,0.1007,0.1022,0.1052,0.1115,0.116,0.124,0.1282,0.1358,0.1407,0.1486,0.1485,0.1573,0.1555,0.157,0.158,0.1581,0.1491,0.1447,0.1483,0.1566,0.1565,0.1564,0.1562,0.1561,0,0.0856,0.0911,0.0937,0.0954,0.1019,0.1051,0.1099,0.1172,0.1222,0.1324,0.1387,0.1469,0.1548,0.1588,0.1631,0.1617,0.1708,0.1684,0.1611,0.1603,0.165,0.164,0.1741,0.1741,0.1741,0.1741,0.174,0,0.0834,0.0857,0.0924,0.0935,0.0981,0.1039,0.1104,0.1161,0.1258,0.1316,0.1427,0.1496,0.1588,0.1652,0.1657,0.1668,0.1736,0.1627,0.1617,0.1666,0.1657,0.1655,0.1644,0.1742,0.1741,0.1741,0.1741,0,0.0777,0.0827,0.0857,0.093,0.0961,0.0996,0.1107,0.1144,0.1267,0.1353,0.14,0.1544,0.1627,0.1687,0.1745,0.1708,0.1711,0.1692,0.1732,0.1722,0.1561,0.1553,0.1606,0.1603,0.1601,0.1599,0.1598,0,0.0751,0.0758,0.0836,0.0865,0.0905,0.0974,0.1016,0.113,0.1183,0.136,0.1398,0.1536,0.1609,0.1639,0.1692,0.1695,0.1679,0.1666,0.1619,0.1568,0.1554,0.1549,0.1544,0.1594,0.1594,0.1593,0.1592,0,0.0687,0.0721,0.0741,0.08,0.0848,0.0891,0.0974,0.1011,0.1141,0.1273,0.1372,0.1433,0.1528,0.1576,0.1608,0.1599,0.1666,0.1643,0.1646,0.1601,0.1555,0.1541,0.1539,0.1585,0.1586,0.1587,0.1587,0,0.0638,0.0629,0.0663,0.0712,0.0775,0.0795,0.0847,0.0925,0.0999,0.1212,0.1227,0.1377,0.1496,0.1527,0.1541,0.1547,0.1518,0.1465,0.1477,0.1486,0.1435,0.1358,0.133,0,0,0,0,0,0.0585,0.0559,0.0579,0.0622,0.0686,0.0719,0.0811,0.0869,0.1014,0.1051,0.1143,0.1218,0.1293,0.1377,0.1357,0.1463,0.1499,0.1431,0.1437,0.1543,0.1552,0.1504,0,0,0,0,0,0,0.0541,0.0542,0.0533,0.0542,0.0567,0.0607,0.0656,0.074,0.0794,0.096,0.102,0.1147,0.1244,0.1291,0.1335,0.1354,0.1333,0.1524,0.1521,0.1538,0.1546,0.1553,0.1507,0,0,0,0,0]},{"header":{"parameterUnit":"m.s-1","parameterCategory":2,"la1":30.2991,"la2":30.254,"lo1":-89.0895,"lo2":-89.0444,"dy":0.0017,"dx":0.0017,"nx":28,"ny":28,"refTime":"2025-09-06T21:00:00:Z","depth":"4","parameterNumber":3,"parameterNumberName":"V-component_of_CURRENTS"},"data":[0,0,0,0,0,0,0,0,0,0,0,0,0,0,0,0,0,0,0,0,0,0,0,0,0,0,0,0,0,0,0,0,0,0,0,0,0,0,0,0,0,0,0,0,0,0,0,0,0,0,0,0,0,0,0,0,0,0,-0.0027,-0.0027,0,-0.0053,-0.0054,-0.0054,-0.0079,-0.0079,-0.0079,-0.008,-0.013,-0.0131,-0.0132,0,0,0,0,0,0,0,0,0,0,0,0,0,-0.0004,-0.0004,-0.0026,-0.0027,-0.0027,-0.0053,-0.0054,-0.0054,-0.0079,-0.0079,-0.0079,-0.008,-0.013,-0.0131,-0.0132,0,0,0,0,0,0,0,0,0,0,0,0,0,-0.0019,-0.0004,-0.0026,-0.0043,-0.0045,-0.0053,-0.0054,-0.0054,-0.0078,-0.0079,-0.008,-0.008,-0.0129,-0.0131,-0.0132,-0.013,0,0,-0.0137,-0.0137,0,0,0,0,0,0,0,0,-0.0018,-0.002,-0.004,-0.0042,-0.0044,-0.0064,-0.0064,-0.0081,-0.0078,-0.0065,-0.008,-0.008,-0.011,-0.0113,-0.0115,-0.0132,-0.0134,-0.0137,-0.0138,-0.0138,-0.0139,0,0,0,0,0,0,0,-0.0017,-0.0019,-0.0036,-0.0041,-0.0043,-0.0052,-0.0055,-0.0067,-0.0084,-0.0066,-0.0068,-0.0072,-0.0111,-0.0114,-0.0117,-0.0135,-0.0137,-0.0138,-0.0139,-0.0139,-0.0136,-0.0135,0,0,0,0,0,0,-0.0015,-0.0018,-0.0035,-0.0037,-0.0033,-0.0052,-0.0055,-0.0056,-0.0083,-0.0088,-0.0072,-0.0073,-0.0111,-0.0115,-0.0119,-0.0092,-0.0138,-0.014,-0.014,-0.0137,-0.0135,-0.0134,0,0,0,0,0,0,-0.0014,-0.0016,-0.0034,-0.0029,-0.0032,-0.0052,-0.0053,-0.0057,-0.0064,-0.0087,-0.0093,-0.0077,-0.0112,-0.0117,-0.0123,-0.0095,-0.014,-0.0142,-0.0138,-0.0136,-0.0135,-0.0055,0,0,0,0,0,0,-0.0013,-0.0015,-0.0016,-0.0029,-0.0032,-0.0036,-0.0053,-0.0057,-0.0066,-0.0068,-0.0093,-0.0098,-0.0113,-0.0121,-0.0125,-0.0098,-0.0143,-0.0139,-0.0137,-0.0135,-0.0059,-0.0051,-0.0044,0,0,0,0,0,-0.0012,-0.0009,-0.0016,-0.0018,-0.0032,-0.0036,-0.0038,-0.0053,-0.0066,-0.0064,-0.0077,-0.0098,-0.0112,-0.0121,-0.0126,-0.0099,-0.014,-0.0138,-0.0136,-0.0062,-0.0053,-0.0045,0,0,0,0,0,0,-0.0001,-0.0012,-0.0019,-0.002,-0.0027,-0.004,-0.0042,-0.0053,-0.0062,-0.0067,-0.009,-0.0095,-0.0088,-0.0108,-0.0118,-0.0093,-0.0127,-0.0126,-0.007,-0.0061,-0.0054,-0.0042,-0.0144,0,0,0,0,0,0.0002,0.0002,-0.0009,-0.001,-0.0013,-0.0028,-0.0033,-0.0041,-0.0052,-0.0057,-0.0071,-0.0083,-0.0081,-0.0084,-0.0093,-0.0083,-0.0123,-0.0068,-0.006,-0.0054,-0.0047,-0.0072,-0.0067,-0.0127,-0.0127,-0.0127,0,0,0.0006,-0.0,-0.0,-0.0007,-0.0015,-0.0003,-0.0032,-0.0036,-0.0017,-0.0061,-0.0044,-0.0062,-0.0075,-0.0058,-0.0056,-0.0071,-0.0063,-0.0051,-0.0045,-0.0042,-0.007,-0.0064,-0.0059,-0.0126,-0.0126,-0.0126,0,0,0.0021,0.0009,0.0018,0.0019,0.0011,0.0008,0.0008,-0.0002,0.0001,0.0008,-0.0008,-0.0007,-0.0019,-0.0009,-0.0007,0.0033,-0.0026,0.0026,0.0077,0.0053,0.0058,0.0062,-0.0005,-0.0008,0.0033,0.0034,0.0034,0,0.0027,0.0038,0.002,0.0034,0.0044,0.0018,0.004,0.0045,0.0036,0.0047,0.0021,0.0024,0.0012,0.0049,0.0068,0.0053,0.0007,0.0047,0.0063,0.0066,0.0068,-0.0001,-0.0005,0.0038,0.0037,0.0037,0.0036,0,0.0052,0.0064,0.007,0.0086,0.0095,0.0106,0.0113,0.0123,0.0116,0.0117,0.0134,0.0115,0.0114,0.0119,0.0107,0.0132,0.0081,0.0072,0.0041,0.0079,0.0003,-0.0003,0.0043,0.0042,0.0041,0.004,0,0,0.0057,0.0084,0.0087,0.0109,0.0125,0.0136,0.0176,0.0204,0.0222,0.0216,0.0233,0.0252,0.0222,0.0221,0.0204,0.0194,0.0169,0.0145,0.0141,0.0079,0.0075,0.0038,0.0027,0.0157,0.0158,0.0158,0.0005,0,0.0083,0.0127,0.0135,0.0185,0.0211,0.0218,0.0257,0.028,0.028,0.0286,0.0281,0.0279,0.0268,0.0253,0.025,0.018,0.0161,0.0208,0.0047,0.0041,0.0006,0.0023,0.0158,0.0001,-0.0001,-0.0002,-0.0002,0,0.0104,0.0135,0.0189,0.0243,0.0254,0.0282,0.0331,0.036,0.0374,0.0367,0.0367,0.0334,0.0325,0.0297,0.0217,0.024,0.0171,0.0118,0.0111,0.0049,-0.0004,-0.004,-0.0014,-0.0013,-0.0012,-0.0011,-0.0011,0,0.0115,0.0172,0.022,0.0238,0.0293,0.0325,0.0354,0.0384,0.0406,0.0404,0.0388,0.0372,0.0327,0.027,0.016,0.018,0.0038,0.0048,-0.0049,-0.0055,-0.0014,-0.0016,-0.0001,-0.0001,-0.0001,-0.0,0.0,0,0.0138,0.0174,0.0229,0.0254,0.0312,0.0344,0.0394,0.0414,0.0431,0.0442,0.0419,0.0393,0.0317,0.0225,0.0149,0.0013,0.0023,-0.0043,-0.0085,0.0018,0.0022,-0.0021,-0.0021,-0.0006,-0.0005,-0.0004,-0.0003,0,0.0134,0.017,0.0224,0.0292,0.0315,0.0353,0.0413,0.0441,0.045,0.0453,0.0445,0.0384,0.0261,0.0162,0.0026,-0.0023,-0.0134,-0.0182,-0.0106,-0.0141,-0.0212,-0.0206,-0.0297,-0.0299,-0.0301,-0.0303,-0.0304,0,0.0134,0.0163,0.024,0.0272,0.0301,0.0363,0.0402,0.0444,0.0468,0.0443,0.0434,0.0318,0.0263,0.0039,-0.0061,-0.023,-0.0232,-0.0298,-0.0195,-0.0205,-0.0237,-0.0228,-0.022,-0.0307,-0.0308,-0.0308,-0.0309,0,0.0133,0.0157,0.02,0.0267,0.0315,0.0374,0.043,0.0446,0.0478,0.0479,0.042,0.0316,0.0161,0.0021,-0.0131,-0.0234,-0.0251,-0.0317,-0.0312,-0.0217,-0.0219,-0.0247,-0.0236,-0.0315,-0.0314,-0.0314,-0.0313,0,0.012,0.0146,0.02,0.0261,0.0318,0.0368,0.0406,0.0435,0.046,0.0449,0.0414,0.0276,0.02,0.0012,-0.012,-0.0239,-0.0238,-0.0233,-0.0232,-0.0226,-0.0143,-0.0131,-0.0237,0,0,0,0,0,0.0109,0.014,0.0192,0.0263,0.0319,0.0357,0.0417,0.0451,0.0476,0.0442,0.044,0.0308,0.011,0.0021,-0.0103,-0.016,-0.0272,-0.0308,-0.0269,-0.0353,-0.0345,-0.0259,0,0,0,0,0,0,0.0101,0.0144,0.0183,0.025,0.0297,0.0362,0.04,0.0421,0.0418,0.0421,0.0318,0.0288,0.0091,0.0176,-0.0105,-0.0144,-0.013,-0.0396,-0.0398,-0.0357,-0.035,-0.0344,-0.0253,0,0,0,0,0]}]]